TimeEDT,TemperatureF,Dew PointF,Humidity,Sea Level PressureIn,VisibilityMPH,Wind Direction,Wind SpeedMPH,Gust SpeedMPH,PrecipitationIn,Events,Conditions,WindDirDegrees,DateUTC
12:51 AM,30.9,27.0,85,30.19,10.0,SE,3.5,-,N/A,,Partly Cloudy,130,2013-05-14 04:51:00
1:51 AM,28.0,26.1,92,30.19,10.0,SSE,4.6,-,N/A,,Partly Cloudy,150,2013-05-14 05:51:00
2:51 AM,34.0,26.1,73,30.17,10.0,SSE,5.8,-,N/A,,Scattered Clouds,150,2013-05-14 06:51:00
3:51 AM,34.0,25.0,70,30.17,10.0,SE,5.8,-,N/A,,Overcast,140,2013-05-14 07:51:00
4:51 AM,35.1,25.0,67,30.15,10.0,SSE,6.9,-,N/A,,Mostly Cloudy,150,2013-05-14 08:51:00
5:51 AM,36.0,25.0,64,30.16,10.0,SSE,6.9,-,N/A,,Mostly Cloudy,160,2013-05-14 09:51:00
6:51 AM,37.9,25.0,60,30.17,10.0,SSE,9.2,-,N/A,,Overcast,160,2013-05-14 10:51:00
7:51 AM,42.1,26.1,53,30.17,10.0,SSE,8.1,-,N/A,,Overcast,150,2013-05-14 11:51:00
8:51 AM,45.0,26.1,48,30.17,10.0,South,9.2,-,N/A,,Overcast,170,2013-05-14 12:51:00
9:51 AM,46.9,27.0,46,30.15,10.0,SSE,10.4,-,N/A,,Overcast,150,2013-05-14 13:51:00
10:51 AM,48.9,28.9,46,30.13,10.0,SSW,8.1,-,N/A,,Overcast,200,2013-05-14 14:51:00
11:51 AM,50.0,30.9,48,30.11,10.0,South,4.6,-,N/A,,Overcast,170,2013-05-14 15:51:00
12:51 PM,52.0,32.0,47,30.09,10.0,SSE,9.2,-,N/A,,Overcast,160,2013-05-14 16:51:00
1:51 PM,55.4,35.6,47,30.05,10.0,ESE,9.2,-,N/A,,Overcast,120,2013-05-14 17:51:00
2:51 PM,54.0,34.0,47,30.04,10.0,SE,12.7,-,N/A,,Overcast,130,2013-05-14 18:51:00
3:51 PM,54.0,37.0,53,30.01,10.0,ESE,16.1,-,0.00,Rain,Light Rain,110,2013-05-14 19:51:00
4:51 PM,57.0,37.0,47,29.96,10.0,SE,18.4,27.6,0.00,,Mostly Cloudy,130,2013-05-14 20:51:00
5:51 PM,55.9,37.9,51,29.94,10.0,ESE,16.1,-,N/A,,Mostly Cloudy,110,2013-05-14 21:51:00
6:51 PM,54.0,37.9,55,29.95,10.0,East,12.7,-,N/A,,Mostly Cloudy,100,2013-05-14 22:51:00
7:51 PM,53.1,37.9,57,29.95,10.0,ESE,12.7,-,N/A,,Overcast,110,2013-05-14 23:51:00
8:51 PM,52.0,37.0,57,29.94,10.0,ESE,12.7,-,N/A,,Mostly Cloudy,120,2013-05-15 00:51:00
9:51 PM,52.0,37.0,57,29.93,10.0,ESE,13.8,-,N/A,,Mostly Cloudy,120,2013-05-15 01:51:00
10:51 PM,51.1,36.0,56,29.91,10.0,SE,10.4,-,N/A,,Mostly Cloudy,130,2013-05-15 02:51:00
11:51 PM,51.1,36.0,56,29.88,10.0,SE,11.5,-,N/A,,Partly Cloudy,130,2013-05-15 03:51:00